Location: Val-d'Or
(48.1170°N, 77.7670°W)
Time: 12:02:53
(UTC-04:00)

ISS - Pass Details

Date: 19 May 2018
Orbit: 402 x 407 km, 51.6° (Epoch: 23 May)

Event Time Altitude Azimuth Distance (km) Brightness Sun altitude
Exits shadow 02:40:32 - 289° (WNW) 1,725 -0.7 -19.0°
Reaches altitude 10° 02:41:12 10° 291° (WNW) 1,459 -1.0 -18.9°
Maximum altitude 02:44:21 44° 6° (N) 566 -2.7 -18.7°
Drops below altitude 10° 02:47:31 10° 81° (E) 1,457 -0.6 -18.5°
Sets 02:49:39 0° 88° (E) 2,316 0.4 -18.4°
